Tracking 23645 objects as of 21-Sep-2021
HD Live streaming from Space Station
objects crossing your sky now

STARLINK-2012

Track STARLINK-2012 now!
10-day predictions
STARLINK-2012 is classified as:


NORAD ID: 47635
Int'l Code: 2021-012R
Perigee: 378.2 km
Apogee: 379.7 km
Inclination: 53.0 °
Period: 92.0 minutes
Semi major axis: 6749 km
RCS: Unknown
Launch date: February 16, 2021
Source: United States (US)
Launch site: AIR FORCE EASTERN TEST RANGE (AFETR)
aabbcc
Your satellite tracking list
Your tracking list is empty




NASA's NSSDC Master Catalog

Two Line Element Set (TLE):
1 47635U 21012R   21264.66668981 -.00965544  00000-0 -10441-1 0  9992
2 47635  53.0448 100.4178 0001087  64.0348 287.5489 15.65506680  3685
Source of the keplerian elements: AFSPC